Погода в Каратабане

Россия / Челябинская область     54°41′20″N   61°40′46″E
темп.,
°C
ветер,
м/с
пор.,
м/с
влажн.,
%
обл.,
%
осадки,
мм/ч
давл.,
гПа
погр.,
м
28 февраля, вс
вс2823:00−13юв61294100 1.0 1013583
02:00−13юв61094100 0.4 1011427
05:00−14вюв489599 0.6 1010260
08:00−15в499594 0.1 1009279
11:00−13в469597 0.2 1008283
14:00−11всв5694100 0.1 1006339
17:00−11св5795100 0.5 1006402
20:00−13ссв489594 0.4 1008258
1 марта, пн
пн123:00−15ссв589694 0.4 1009246
02:00−17с479699 0.1 1011236
05:00−18с479799 0.1 1013204
08:00−19с379787 0.1 1015220
11:00−17с349490 0.1 1016300
14:00−14с2388100 0.1 1017386
17:00−14ссв1289100 0.1 1017291
20:00−16всв119687 0.1 101820
2 марта, вт
вт223:00−17ююз119786 0.1 101820
02:00−19ююз229879 0.0 101720
05:00−19юз229878 0.0 101620
08:00−18ююз239787 0.0 101522
11:00−14ююз349584 0.1 1014232
14:00−12ю459294 0.0 1011393
17:00−12ю489397 0.1 1010329
20:00−15ю589495 0.0 1008187
3 марта, ср
ср323:00−12ююз5109294 0.0 1007262
02:00−10ююз61291100 0.1 1006471
05:00−11юз61292100 0.1 1005438
08:00−10ююз5129395 0.1 1004465
11:00−5юз7129098 0.1 1002677
14:00−2юз61088100 0.1 1001788
17:00−2юз5988100 0.1 1000710
20:00−5ююз4992100 0.0 1000168
4 марта, чт
чт423:00−6юз349496 0.0 100186
02:00−8з239068 0.0 100021
05:00−10сз229079 0.0 100121
08:00−12сз229163 0.0 100121
11:00−7з238732 0.0 1001146
14:00−3зсз578373 0.0 1002877
17:00−4зсз598386 0.1 1004521
20:00−11з458230 0.0 100666